STARLINK-4013 (52604 NORAD) Tracking and Keplerian Element Data

This shows tracking and keplerian element data for the satellite.

Feedback or suggestion? Click here.




ElementValue
Catalog52604
NameSTARLINK-4013
Epoch Orbit130
Epoch Day192.91667824
Epoch Year2022
RAAN160.2138
Inclination53.2175
Eccentricity0.0001893
Argument of Perigee40.5861
Mean Anonmoly189.8502
Mean Motion15.15416359
Decay Rate-0.00721637
L11 52604U 22052G 22192.91667824 -.00721637 00000+0 -40525-1 0 9991
L22 52604 53.2175 160.2138 0001893 40.5861 189.8502 15.15416359 1305

Live tracking and technical data element details for STARLINK-4013 (NORAD 52604). STARLINK-4013 can be tracked NOW for your location showing map with azimuth and elevation plus other details from your city location.

Track the satellite on the map from your city or location and see movement details for azimuth, elevation, latitude, longitude, range, height, and movement on the map or in text.







IsCatalogInMostPopularTable: catalog: 52604, numindb: 7
Update: records affected: 1



GetName: 52604 STARLINK-4013

Hit Count: updated at: Sun, 14 Aug 2022 00:42:16 GMT